Location: El Bebedero
(10.5352°N, 66.6588°W)
Time: 07:50:26
(UTC+00:00)

Daily predictions for brighter satellites

Satellite Brightness Start Highest point End
(mag) Time Altitude Azimuth Time Altitude Azimuth Time Altitude Azimuth
ATLAS 2AS CENTAUR RB 4.3 20:32:38 10° WSW 20:38:05 79° SSE 21:25:59 10° E
ATLAS 2AS CENTAUR RB 4.3 20:32:38 10° WSW 20:38:05 79° SSE 21:26:00 10° E
ATLAS 2AS CENTAUR RB 4.3 20:32:39 10° WSW 20:38:05 79° SSE 21:25:59 10° E
ATLAS 2AS CENTAUR RB 4.3 20:32:38 10° WSW 20:38:06 79° SSE 21:26:00 10° E
ATLAS 2AS CENTAUR RB 4.3 20:32:38 10° WSW 20:38:06 79° SSE 21:25:59 10° E
ATLAS 2AS CENTAUR RB 4.3 20:32:39 10° WSW 20:38:06 79° SSE 21:25:59 10° E
Cosmos 1125 Rocket 4.0 22:52:45 10° N 22:57:44 42° ENE 23:02:42 10° SSE
Ariane H10+ 2.6 22:58:37 10° WSW 23:01:15 59° S 23:07:53 10° E
Cosmos 1844 3.7 22:58:30 10° N 23:04:13 73° ENE 23:09:54 10° SSE
Helios 1B rocket 3.4 23:00:43 10° S 23:04:29 47° WSW 23:08:16 10° NNW
Cosmos 1238 Rocket 4.3 23:00:41 10° SSE 23:04:32 27° E 23:08:50 10° NNE
Centaur D AC-29 1.7 23:03:41 10° WSW 23:07:54 59° NNW 23:11:52 10° ENE
Okean 1-7 Rocket 3.6 23:03:49 10° N 23:08:11 61° E 23:12:31 10° SSE
Cosmos 1812 3.6 23:06:12 10° SSE 23:09:09 25° E 23:12:06 10° NE
Centaur D-1AR AC-37 4.1 23:05:32 10° WNW 23:09:23 86° SSW 23:14:05 10° ESE
SL-08 R/B 4.0 23:04:37 10° N 23:09:27 63° WNW 23:14:15 10° SSW
Cosmos 2237 Rocket 2.2 23:04:19 10° S 23:09:54 65° ESE 23:15:31 10° NNE
ARIANE 5 DEB (SYLDA) 4.5 22:56:36 10° WSW 23:12:03 43° S 23:16:05 11° ESE
Cosmos 2100 Rocket 3.9 23:05:58 10° N 23:12:06 73° E 23:18:11 10° S
Cosmos 1626 Rocket 4.4 23:09:17 10° NNW 23:13:34 55° W 23:17:49 10° S
Timation 2 Rocket 4.0 23:09:51 10° N 23:15:42 54° ENE 23:21:29 10° SSE
Cosmos 1844 Rocket 3.0 23:11:14 10° NNW 23:16:44 68° WSW 23:22:16 10° S
SL-8 R/B 3.7 23:12:18 10° SSW 23:16:58 61° SE 23:21:37 10° NE
IGS 5A 3.6 23:13:41 10° S 23:17:44 73° WSW 23:21:47 10° NNW
Cosmos 1980 3.7 23:12:24 10° SSW 23:18:03 87° ESE 23:23:42 10° NNE
Milstar 3 3.1 23:13:51 10° WNW 23:20:31 78° SSW 23:29:15 13° ESE
GPS 2-15 Rocket1 4.2 23:20:48 10° W 23:25:11 35° SSW 23:28:58 13° SE
Cosmos 2173 Rocket 4.0 23:21:32 10° N 23:27:39 84° W 23:33:44 10° S
Ariane 3 Deb 3.4 23:26:04 10° WSW 23:30:04 29° S 23:31:45 18° SE
Cosmos 1666 3.3 23:28:22 10° NNE 23:31:23 29° E 23:33:06 19° SE
Cosmos 2150 Rocket 4.3 23:26:33 10° N 23:31:45 50° ENE 23:36:45 11° SSE
Cosmos 1725 Rocket 4.0 23:29:45 10° N 23:35:58 63° E 23:42:12 10° SSE
ADEOS Rocket 3.4 23:33:29 10° S 23:39:04 64° WSW 23:45:10 10° NNW
Cosmos 1862 3.3 23:36:31 10° N 23:40:18 78° W 23:44:05 10° S
CZ-4B R/B 3.3 23:35:38 10° SSE 23:40:22 87° WSW 23:45:07 10° NNW
Cosmos 1802 Rocket 4.0 23:34:09 10° N 23:40:33 88° E 23:46:54 10° S
GEOS 3 Rocket 4.2 23:37:20 10° NE 23:41:49 32° ESE 23:46:16 10° S
Intelsat 5-3 Rocket 2.0 23:39:19 10° WNW 23:42:01 90° N 23:44:33 24° ESE
Resurs 1-3 4.2 23:40:20 21° SE 23:42:34 35° ENE 23:46:31 10° N
Landsat 7 3.7 23:38:04 10° SSE 23:42:46 85° ENE 23:47:28 10° N
YAOGAN 1 2.9 23:40:46 10° S 23:45:00 67° WSW 23:49:15 10° NNW
Cosmos 1867 3.7 23:40:40 10° NNW 23:46:05 76° WSW 23:51:01 12° SSE
OAO 1 4.4 23:41:36 10° SW 23:47:05 85° SE 23:52:34 10° NE
Cosmos 2058 Rocket 3.2 23:43:16 10° S 23:47:36 74° W 23:51:58 10° N
Cosmos 1500 2.9 23:45:15 10° N 23:48:40 84° W 23:51:24 15° S
Cosmos 1953 Rocket 4.0 23:46:23 10° NNE 23:50:30 40° E 23:52:01 30° SE
Cosmos 1809 Rocket 4.5 23:45:55 10° S 23:51:57 57° E 23:57:57 10° NNE
CZ-4B R/B 4.1 23:52:50 25° E 23:53:56 27° ENE 23:58:21 10° NNE
